Torna al catalogo

BREEZE-KM R/B

AttivoPO
NORAD 43754·ROCKET BODY·🇷🇺 Russia

Lanciato Nov 30, 2018 da Plesetsk Cosmodrome

Loading…

Prossimi Passaggi (prossime 24 ore)

TLE

AggiornatoSource: Space-Track

Epoca: Sep 14, 2026, 09:29 UTC

1 43754U 18097D   26257.39547146  .00000004  00000-0 -34727-4 0  9991
2 43754  82.5143  39.5098 0223268  96.7748 265.8812 12.80116704363831

Traccia BREEZE-KM R/B in tempo reale con AllMySat

Download on the App Store